Change the Weather History Date:

Thursday, February 21, 2013

  Actual Average Record
Temperature  
Mean Temperature 34 °F -  
Max Temperature 41 °F 48 °F 70 °F (1971)
Min Temperature 26 °F 28 °F 5 °F (2015)
Degree Days  
Heating Degree Days 32    
Moisture  
Dew Point 16 °F    
Average Humidity 50    
Maximum Humidity 69    
Minimum Humidity 37    
Precipitation  
Precipitation 0.00 in - - ()
Sea Level Pressure  
Sea Level Pressure 30.21 in    
Wind  
Wind Speed 8 mph (NW)    
Max Wind Speed 17 mph    
Max Gust Speed 26 mph    
Visibility 10 miles    
Events      
Averages and records for this station are not official NWS values.
T = Trace of Precipitation, MM = Missing Value Source: NWS Daily Summary

Daily Weather History Graph

Daily Weather History Graph

Search for Another Location

Airport or City:

Trip Planner

Search our weather history database for the weather conditions in past years. The results will help you decide how hot, cold, wet, or windy it might be!

Date:

Astronomy

Feb. 21, 2013 Rise Set
Actual Time 6:51 AM EST 5:52 PM EST
Civil Twilight 6:24 AM EST 6:19 PM EST
Nautical Twilight 5:52 AM EST 6:50 PM EST
Astronomical Twilight 5:22 AM EST 7:21 PM EST
Moon 2:06 PM EST (2/21) 3:52 AM EST (2/21)
Length of Visible Light 11h 55m
Length of Day
11h 01m
Waxing Gibbous, 83% of the Moon is Illuminated
Feb 21
Waxing Gibbous
Feb 25
Full
Mar 4
Last Quarter
Mar 11
New
Mar 19
First Quarter

Hourly Weather History & Observations

Time (EST) Temp. Windchill Dew Point Humidity Pressure Visibility Wind Dir Wind Speed Gust Speed Precip Events Conditions
12:05 AM 27.9 °F 19.1 °F 11.7 °F 51% 30.16 in 10.0 mi WNW 9.2 mph - N/A   Clear
12:25 AM 27.7 °F 21.3 °F 11.8 °F 51% 30.15 in 10.0 mi West 5.8 mph - N/A   Clear
12:45 AM 27.5 °F 19.3 °F 12.2 °F 53% 30.14 in 10.0 mi WNW 8.1 mph - N/A   Clear
1:05 AM 27.3 °F 22.0 °F 12.2 °F 53% 30.15 in 10.0 mi West 4.6 mph - N/A   Clear
1:25 AM 27.3 °F 19.9 °F 12.4 °F 53% 30.15 in 10.0 mi West 6.9 mph - N/A   Clear
1:45 AM 27.3 °F 23.4 °F 12.9 °F 55% 30.15 in 10.0 mi West 3.5 mph - N/A   Clear
2:05 AM 27.3 °F 20.9 °F 13.1 °F 55% 30.15 in 10.0 mi West 5.8 mph - N/A   Clear
2:20 AM 27.5 °F 18.6 °F 12.9 °F 54% 30.15 in 10.0 mi NW 9.2 mph 16.1 mph N/A   Clear
2:45 AM 27.5 °F 18.6 °F 12.7 °F 54% 30.15 in 10.0 mi West 9.2 mph - N/A   Clear
3:05 AM 27.1 °F 18.9 °F 12.9 °F 55% 30.15 in 10.0 mi WNW 8.1 mph - N/A   Clear
3:25 AM 27.1 °F 23.2 °F 12.9 °F 55% 30.14 in 10.0 mi West 3.5 mph - N/A   Clear
4:05 AM 26.8 °F 21.4 °F 12.9 °F 56% 30.14 in 10.0 mi West 4.6 mph - N/A   Clear
4:25 AM 26.6 °F 22.6 °F 13.1 °F 57% 30.15 in 10.0 mi West 3.5 mph - N/A   Clear
4:45 AM 26.6 °F 18.2 °F 13.1 °F 57% 30.16 in 10.0 mi West 8.1 mph - N/A   Clear
5:05 AM 26.6 °F 20.0 °F 13.3 °F 57% 30.17 in 10.0 mi West 5.8 mph - N/A   Clear
5:25 AM 26.6 °F 21.2 °F 13.5 °F 58% 30.16 in 10.0 mi WNW 4.6 mph - N/A   Clear
5:45 AM 26.6 °F 18.2 °F 13.5 °F 58% 30.16 in 10.0 mi WNW 8.1 mph - N/A   Clear
6:05 AM 26.6 °F 19.1 °F 13.6 °F 58% 30.16 in 10.0 mi WNW 6.9 mph - N/A   Clear
6:25 AM 26.6 °F 17.5 °F 13.5 °F 58% 30.16 in 10.0 mi NW 9.2 mph - N/A   Clear
7:05 AM 27.9 °F 18.4 °F 13.5 °F 55% 30.18 in 10.0 mi WNW 10.4 mph - N/A   Clear
7:25 AM 28.4 °F 19.1 °F 13.5 °F 54% 30.18 in 10.0 mi WNW 10.4 mph - N/A   Clear
7:45 AM 29.1 °F 20.6 °F 14.0 °F 53% 30.19 in 10.0 mi NW 9.2 mph 17.3 mph N/A   Clear
8:05 AM 30.0 °F 18.3 °F 14.0 °F 51% 30.20 in 10.0 mi NW 17.3 mph 21.9 mph N/A   Clear
8:25 AM 30.2 °F 19.3 °F 14.0 °F 51% 30.20 in 10.0 mi NW 15.0 mph 19.6 mph N/A   Clear
8:45 AM 31.1 °F 21.4 °F 14.7 °F 51% 30.21 in 10.0 mi NW 12.7 mph 23.0 mph N/A   Clear
9:10 AM 31.8 °F 21.4 °F 14.9 °F 50% 30.21 in 10.0 mi WNW 15.0 mph 20.7 mph N/A   Mostly Cloudy
9:30 AM 32.0 °F 22.1 °F 15.3 °F 50% 30.21 in 10.0 mi NW 13.8 mph 19.6 mph N/A   Mostly Cloudy
9:50 AM 32.0 °F 21.6 °F 14.9 °F 49% 30.21 in 10.0 mi NW 15.0 mph 24.2 mph N/A   Scattered Clouds
10:10 AM 32.0 °F 22.1 °F 15.1 °F 50% 30.22 in 10.0 mi WNW 13.8 mph 26.5 mph N/A   Scattered Clouds
10:30 AM 33.8 °F 26.4 °F 15.4 °F 47% 30.23 in 10.0 mi WNW 9.2 mph 19.6 mph N/A   Mostly Cloudy
10:50 AM 34.7 °F 25.5 °F 14.9 °F 44% 30.22 in 10.0 mi NW 13.8 mph 20.7 mph N/A   Mostly Cloudy
11:10 AM 35.2 °F 28.1 °F 14.9 °F 43% 30.21 in 10.0 mi WNW 9.2 mph 23.0 mph N/A   Scattered Clouds
11:30 AM 35.4 °F 25.6 °F 14.9 °F 43% 30.20 in 10.0 mi NNW 16.1 mph 24.2 mph N/A   Scattered Clouds
11:50 AM 36.0 °F 29.6 °F 15.3 °F 43% 30.21 in 10.0 mi WNW 8.1 mph 19.6 mph N/A   Scattered Clouds
12:10 PM 36.5 °F 28.2 °F 15.1 °F 42% 30.20 in 10.0 mi West 12.7 mph 19.6 mph N/A   Scattered Clouds
12:30 PM 37.8 °F 30.2 °F 16.2 °F 42% 30.20 in 10.0 mi West 11.5 mph 23.0 mph N/A   Clear
12:50 PM 37.8 °F 30.7 °F 15.8 °F 41% 30.20 in 10.0 mi WNW 10.4 mph 19.6 mph N/A   Clear
1:10 PM 38.1 °F 30.7 °F 16.0 °F 41% 30.19 in 10.0 mi West 11.5 mph 21.9 mph N/A   Clear
1:30 PM 39.2 °F 32.0 °F 16.3 °F 40% 30.18 in 10.0 mi NW 11.5 mph 18.4 mph N/A   Clear
2:10 PM 39.4 °F 32.7 °F 16.2 °F 39% 30.17 in 10.0 mi WNW 10.4 mph 19.6 mph N/A   Clear
2:30 PM 40.5 °F 34.1 °F 16.5 °F 38% 30.17 in 10.0 mi NNW 10.4 mph 19.6 mph N/A   Clear
2:50 PM 40.6 °F 34.8 °F 16.5 °F 38% 30.17 in 10.0 mi WNW 9.2 mph 18.4 mph N/A   Clear
3:05 PM 41.2 °F 36.0 °F 17.2 °F 38% 30.17 in 10.0 mi NW 8.1 mph 17.3 mph N/A   Clear
3:30 PM 41.2 °F 33.4 °F 16.7 °F 37% 30.18 in 10.0 mi NNW 15.0 mph 21.9 mph N/A   Clear
3:50 PM 41.0 °F 34.3 °F 17.1 °F 38% 30.18 in 10.0 mi NW 11.5 mph 17.3 mph N/A   Clear
4:10 PM 40.6 °F 33.8 °F 16.7 °F 38% 30.18 in 10.0 mi West 11.5 mph 21.9 mph N/A   Clear
4:30 PM 40.3 °F 33.9 °F 17.1 °F 39% 30.18 in 10.0 mi NNW 10.4 mph 17.3 mph N/A   Clear
4:50 PM 40.1 °F 32.4 °F 17.2 °F 40% 30.19 in 10.0 mi NW 13.8 mph 19.6 mph N/A   Clear
5:10 PM 39.4 °F 32.7 °F 17.4 °F 41% 30.21 in 10.0 mi NW 10.4 mph - N/A   Clear
5:30 PM 38.7 °F 30.9 °F 17.2 °F 42% 30.23 in 10.0 mi NW 12.7 mph 17.3 mph N/A   Clear
5:50 PM 37.8 °F 29.4 °F 17.6 °F 44% 30.25 in 10.0 mi WNW 13.8 mph 18.4 mph N/A   Clear
6:10 PM 37.0 °F 32.4 °F 17.4 °F 45% 30.24 in 10.0 mi NNW 5.8 mph - N/A   Clear
6:30 PM 36.5 °F 29.7 °F 17.6 °F 46% 30.26 in 10.0 mi NW 9.2 mph - N/A   Clear
6:50 PM 36.3 °F 30.1 °F 18.1 °F 48% 30.27 in 10.0 mi NW 8.1 mph - N/A   Clear
7:10 PM 36.0 °F 30.3 °F 18.1 °F 48% 30.28 in 10.0 mi NW 6.9 mph - N/A   Clear
7:30 PM 35.1 °F 30.1 °F 18.1 °F 50% 30.29 in 10.0 mi NW 5.8 mph - N/A   Clear
7:45 PM 34.7 °F 30.6 °F 18.1 °F 51% 30.30 in 10.0 mi NNW 4.6 mph - N/A   Clear
8:05 PM 34.3 °F 30.2 °F 18.3 °F 52% 30.30 in 10.0 mi NNW 4.6 mph - N/A   Clear
8:30 PM 33.8 °F 29.6 °F 18.3 °F 53% 30.30 in 10.0 mi NW 4.6 mph - N/A   Clear
8:50 PM 33.6 °F 29.4 °F 18.5 °F 54% 30.31 in 10.0 mi NNW 4.6 mph - N/A   Clear
9:10 PM 33.4 °F - 18.5 °F 54% 30.31 in 10.0 mi Calm Calm - N/A   Clear
9:50 PM 32.4 °F - 18.9 °F 58% 30.32 in 10.0 mi Calm Calm - N/A   Clear
10:10 PM 33.1 °F - 18.9 °F 56% 30.33 in 10.0 mi Calm Calm - N/A   Clear
10:30 PM 32.5 °F - 19.2 °F 58% 30.34 in 10.0 mi Calm Calm - N/A   Clear
10:50 PM 30.4 °F - 20.8 °F 68% 30.34 in 10.0 mi Calm Calm - N/A   Clear
11:10 PM 30.4 °F - 21.2 °F 69% 30.34 in 10.0 mi Calm Calm - N/A   Clear
11:30 PM 32.0 °F 28.7 °F 20.5 °F 63% 30.33 in 10.0 mi NNE 3.5 mph - N/A   Clear
11:50 PM 32.0 °F 28.7 °F 19.6 °F 60% 30.32 in 10.0 mi North 3.5 mph - N/A   Clear